ギブス彗星

C/2014 R4 ( Gibbs )

English version
Home page
Updated on June 11, 2016

---------------------------------------------------------------------

・ プロフィール

発見日 2014年9月14日
発見光度 16.5等
発見者 A. R. Gibbs (Catalina Sky Survey)

・ 写真集

・ 軌道要素

Epoch 2014 Oct. 30.0 TT = JDT 2456960.5
T 2014 Oct. 21.51267 TT                                 MPCW
q   1.8179540            (2000.0)            P               Q
z  +0.0003209      Peri.  180.83980     -0.17621567     -0.72562907
 +/-0.0000167      Node   279.52984     +0.90701151     +0.14285016
e   0.9994166      Incl.   42.41123     +0.38246328     -0.67309456
From 116 observations 2014 Aug. 20-Dec. 20, mean residual 0".6.

・ 星図

・ 光度変化

        m1 = 12.0 + 5 logΔ + 10.0 log r

---------------------------------------------------------------------

軌道要素はM.P.E.C. 2015-E14に掲載されたものです。
星図はステラナビゲータ Ver.8 (アストロアーツ) で作成したものです。
光度グラフはComet for Windowsで作成したものです。

---------------------------------------------------------------------

Copyright(C) Seiichi Yoshida (comet@aerith.net). All rights reserved.